When you browse on this site, cookies collect data to enhance your experience and personalize the content and advertising you see.
Visit our Privacy Policy to learn more. By continuing to use the site, you agree to this use of cookies and data.
  • In Hungary
  • List of Countries
  • For 7 days
  • Water Temperature
  • Satellite Maps
  • Weather Map
  • News
  • Weather Widgets
  • user-avatar
    Login

    Hourly Weather Bir Umm Karajn

    Today, 19 November, Monday

    Time Temperature Precipitation Wind Pressure Humidity
    00:00 +19°C° 0 mm 4 mps 729 mmHg 61%
    01:00 +18°C° 0 mm 3 mps 729 mmHg 64%
    02:00 +18°C° 0 mm 3 mps 729 mmHg 66%
    03:00 +17°C° 0 mm 3 mps 729 mmHg 68%
    04:00 +17°C° 0 mm 3 mps 729 mmHg 71%
    05:00 +17°C° 0 mm 3 mps 729 mmHg 73%
    06:00 +17°C° 0 mm 3 mps 729 mmHg 71%
    07:00 +18°C° 0 mm 3 mps 730 mmHg 69%
    08:00 +18°C° 0 mm 4 mps 730 mmHg 67%
    09:00 +19°C° 0 mm 4 mps 730 mmHg 61%
    10:00 +20°C° 0 mm 4 mps 730 mmHg 55%
    11:00 +21°C° 0 mm 4 mps 730 mmHg 49%
    12:00 +22°C° 0 mm 5 mps 730 mmHg 47%
    13:00 +22°C° 0 mm 5 mps 730 mmHg 46%
    14:00 +23°C° 0 mm 5 mps 729 mmHg 44%
    15:00 +22°C° 0 mm 5 mps 729 mmHg 45%
    16:00 +22°C° 0 mm 4 mps 729 mmHg 46%
    17:00 +22°C° 0 mm 4 mps 730 mmHg 47%
    18:00 +21°C° 0 mm 4 mps 730 mmHg 48%
    19:00 +21°C° 0 mm 3 mps 731 mmHg 50%
    20:00 +20°C° 0 mm 3 mps 731 mmHg 52%
    21:00 +20°C° 0 mm 3 mps 731 mmHg 54%
    22:00 +19°C° 0 mm 3 mps 731 mmHg 56%
    23:00 +19°C° 0 mm 3 mps 731 mmHg 59%

    Tomorrow, 20 November, Tuesday

    Time Temperature Precipitation Wind Pressure Humidity
    00:00 +18°C° 0 mm 3 mps 731 mmHg 62%
    01:00 +18°C° 0 mm 3 mps 731 mmHg 65%
    02:00 +17°C° 0 mm 3 mps 731 mmHg 69%
    03:00 +17°C° 0 mm 3 mps 731 mmHg 71%
    04:00 +16°C° 0 mm 3 mps 731 mmHg 73%
    05:00 +16°C° 0 mm 3 mps 731 mmHg 76%
    06:00 +17°C° 0 mm 3 mps 732 mmHg 72%
    07:00 +17°C° 0 mm 4 mps 732 mmHg 68%
    08:00 +18°C° 0 mm 4 mps 733 mmHg 65%
    09:00 +19°C° 0 mm 4 mps 733 mmHg 57%
    10:00 +20°C° 0 mm 3 mps 733 mmHg 49%
    11:00 +21°C° 0 mm 3 mps 733 mmHg 41%
    12:00 +23°C° 0 mm 2 mps 733 mmHg 38%
    13:00 +24°C° 0 mm 2 mps 732 mmHg 35%
    14:00 +24°C° 0 mm 2 mps 732 mmHg 32%
    15:00 +24°C° 0 mm 2 mps 732 mmHg 33%
    16:00 +24°C° 0 mm 2 mps 732 mmHg 33%
    17:00 +23°C° 0 mm 2 mps 732 mmHg 34%
    18:00 +23°C° 0 mm 2 mps 732 mmHg 36%
    19:00 +21°C° 0 mm 2 mps 733 mmHg 38%
    20:00 +20°C° 0 mm 2 mps 733 mmHg 40%
    21:00 +20°C° 0 mm 3 mps 733 mmHg 43%
    22:00 +19°C° 0 mm 3 mps 733 mmHg 45%
    23:00 +19°C° 0 mm 3 mps 733 mmHg 48%

    Day after tomorrow, 21 November, Wednesday

    Time Temperature Precipitation Wind Pressure Humidity
    00:00 +18°C° 0 mm 3 mps 733 mmHg 50%
    01:00 +18°C° 0 mm 3 mps 732 mmHg 52%
    02:00 +18°C° 0 mm 3 mps 732 mmHg 54%
    03:00 +17°C° 0 mm 3 mps 732 mmHg 56%
    04:00 +17°C° 0 mm 3 mps 732 mmHg 58%
    05:00 +16°C° 0 mm 3 mps 732 mmHg 61%
    06:00 +17°C° 0 mm 3 mps 732 mmHg 59%
    07:00 +18°C° 0 mm 3 mps 733 mmHg 57%
    08:00 +18°C° 0 mm 3 mps 733 mmHg 54%
    09:00 +20°C° 0 mm 3 mps 733 mmHg 48%
    10:00 +21°C° 0 mm 3 mps 733 mmHg 42%
    11:00 +24°C° 0 mm 3 mps 733 mmHg 36%
    12:00 +24°C° 0 mm 3 mps 733 mmHg 34%
    13:00 +25°C° 0 mm 2 mps 732 mmHg 32%
    14:00 +26°C° 0 mm 2 mps 732 mmHg 30%
    15:00 +25°C° 0 mm 2 mps 731 mmHg 31%
    16:00 +25°C° 0 mm 1 mps 731 mmHg 33%
    17:00 +24°C° 0 mm 1 mps 731 mmHg 34%
    18:00 +24°C° 0 mm 1 mps 732 mmHg 35%
    19:00 +23°C° 0 mm 2 mps 732 mmHg 36%
    20:00 +23°C° 0 mm 2 mps 732 mmHg 37%
    21:00 +23°C° 0 mm 2 mps 732 mmHg 37%
    22:00 +21°C° 0 mm 3 mps 732 mmHg 38%
    23:00 +21°C° 0 mm 3 mps 732 mmHg 39%

    22 November, Thursday

    Time Temperature Precipitation Wind Pressure Humidity
    00:00 +21°C° 0 mm 3 mps 731 mmHg 40%
    01:00 +20°C° 0 mm 3 mps 731 mmHg 41%
    02:00 +20°C° 0 mm 3 mps 730 mmHg 42%
    03:00 +19°C° 0 mm 3 mps 730 mmHg 43%
    04:00 +19°C° 0 mm 3 mps 730 mmHg 43%
    05:00 +19°C° 0 mm 3 mps 730 mmHg 44%
    06:00 +20°C° 0 mm 4 mps 730 mmHg 42%
    07:00 +21°C° 0 mm 4 mps 731 mmHg 41%
    08:00 +21°C° 0 mm 5 mps 731 mmHg 39%
    09:00 +23°C° 0 mm 6 mps 731 mmHg 35%
    10:00 +26°C° 0 mm 6 mps 731 mmHg 31%
    11:00 +28°C° 0 mm 7 mps 731 mmHg 27%
    12:00 +29°C° 0 mm 7 mps 730 mmHg 25%
    13:00 +30°C° 0 mm 7 mps 729 mmHg 23%
    14:00 +31°C° 0 mm 8 mps 728 mmHg 21%
    15:00 +30°C° 0 mm 7 mps 728 mmHg 22%
    16:00 +29°C° 0 mm 6 mps 728 mmHg 24%
    17:00 +28°C° 0 mm 5 mps 728 mmHg 25%
    18:00 +27°C° 0 mm 5 mps 729 mmHg 30%
    19:00 +25°C° 0 mm 5 mps 729 mmHg 34%
    20:00 +23°C° 0 mm 5 mps 730 mmHg 38%
    21:00 +22°C° 0 mm 5 mps 730 mmHg 42%
    22:00 +21°C° 0 mm 5 mps 730 mmHg 47%
    23:00 +21°C° 0 mm 5 mps 730 mmHg 52%

    23 November, Friday

    Time Temperature Precipitation Wind Pressure Humidity
    00:00 +20°C° 0 mm 5 mps 730 mmHg 54%
    01:00 +20°C° 0 mm 5 mps 729 mmHg 57%
    02:00 +20°C° 0 mm 5 mps 729 mmHg 59%
    03:00 +19°C° 0 mm 5 mps 729 mmHg 63%
    04:00 +19°C° 0 mm 5 mps 730 mmHg 67%
    05:00 +19°C° 0 mm 5 mps 730 mmHg 70%
    06:00 +19°C° 0 mm 5 mps 730 mmHg 69%
    07:00 +19°C° 0 mm 5 mps 731 mmHg 68%
    08:00 +19°C° 0 mm 5 mps 731 mmHg 67%
    09:00 +20°C° 0 mm 6 mps 731 mmHg 60%
    10:00 +21°C° 0 mm 6 mps 731 mmHg 52%
    11:00 +21°C° 0 mm 7 mps 731 mmHg 44%
    12:00 +22°C° 0 mm 7 mps 731 mmHg 42%
    13:00 +22°C° 0 mm 7 mps 730 mmHg 40%
    14:00 +22°C° 0 mm 8 mps 730 mmHg 38%
    15:00 +22°C° 0 mm 7 mps 730 mmHg 38%
    16:00 +21°C° 0 mm 7 mps 731 mmHg 37%
    17:00 +20°C° 0 mm 6 mps 731 mmHg 37%
    18:00 +20°C° 0 mm 6 mps 732 mmHg 41%
    19:00 +19°C° 0 mm 6 mps 732 mmHg 44%
    20:00 +17°C° 0 mm 5 mps 733 mmHg 48%
    21:00 +17°C° 0 mm 5 mps 733 mmHg 51%
    22:00 +17°C° 0 mm 4 mps 733 mmHg 55%
    23:00 +15°C° 0 mm 4 mps 733 mmHg 59%

    24 November, Saturday

    Time Temperature Precipitation Wind Pressure Humidity
    00:00 +15°C° 0 mm 4 mps 733 mmHg 62%
    01:00 +15°C° 0 mm 4 mps 732 mmHg 66%
    02:00 +14°C° 0 mm 4 mps 732 mmHg 69%
    03:00 +14°C° 0 mm 4 mps 732 mmHg 72%
    04:00 +14°C° 0 mm 4 mps 732 mmHg 76%
    05:00 +13°C° 0 mm 4 mps 733 mmHg 79%
    06:00 +14°C° 0 mm 4 mps 733 mmHg 77%
    07:00 +15°C° 0 mm 5 mps 734 mmHg 75%
    08:00 +15°C° 0 mm 5 mps 734 mmHg 74%
    09:00 +17°C° 0 mm 5 mps 734 mmHg 66%
    10:00 +19°C° 0 mm 5 mps 734 mmHg 58%
    11:00 +21°C° 0 mm 6 mps 734 mmHg 50%
    12:00 +21°C° 0 mm 6 mps 734 mmHg 48%
    13:00 +22°C° 0 mm 6 mps 733 mmHg 45%
    14:00 +23°C° 0 mm 7 mps 732 mmHg 43%
    15:00 +22°C° 0 mm 6 mps 733 mmHg 45%
    16:00 +22°C° 0 mm 6 mps 733 mmHg 47%
    17:00 +21°C° 0 mm 6 mps 733 mmHg 50%
    18:00 +20°C° 0 mm 5 mps 734 mmHg 53%
    19:00 +20°C° 0 mm 5 mps 734 mmHg 57%
    20:00 +19°C° 0 mm 5 mps 734 mmHg 60%
    21:00 +17°C° 0 mm 5 mps 735 mmHg 64%
    22:00 +17°C° 0 mm 5 mps 735 mmHg 69%
    23:00 +16°C° 0 mm 6 mps 735 mmHg 73%
    Show more